TimeEDT,TemperatureF,Dew PointF,Humidity,Sea Level PressureIn,VisibilityMPH,Wind Direction,Wind SpeedMPH,Gust SpeedMPH,PrecipitationIn,Events,Conditions,WindDirDegrees,DateUTC
12:53 AM,46.0,41.0,83,30.20,10.0,Calm,Calm,-,N/A,,Overcast,0,2013-05-18 04:53:00
1:53 AM,48.0,42.1,80,30.21,10.0,Calm,Calm,-,N/A,,Scattered Clouds,0,2013-05-18 05:53:00
2:53 AM,45.0,39.9,82,30.20,10.0,Calm,Calm,-,N/A,,Clear,0,2013-05-18 06:53:00
3:53 AM,45.0,41.0,86,30.21,10.0,Calm,Calm,-,N/A,,Clear,0,2013-05-18 07:53:00
4:53 AM,44.1,39.9,85,30.23,10.0,Calm,Calm,-,N/A,,Clear,0,2013-05-18 08:53:00
5:53 AM,44.1,41.0,89,30.25,10.0,Calm,Calm,-,N/A,,Clear,0,2013-05-18 09:53:00
6:53 AM,50.0,43.0,77,30.26,10.0,NW,3.5,-,N/A,,Clear,320,2013-05-18 10:53:00
7:53 AM,55.9,44.1,64,30.28,10.0,NNW,3.5,-,N/A,,Clear,340,2013-05-18 11:53:00
8:53 AM,62.1,43.0,50,30.30,10.0,Calm,Calm,-,N/A,,Clear,0,2013-05-18 12:53:00
9:53 AM,66.0,41.0,40,30.29,10.0,North,6.9,-,N/A,,Clear,350,2013-05-18 13:53:00
10:53 AM,68.0,41.0,37,30.28,10.0,Variable,4.6,-,N/A,,Clear,0,2013-05-18 14:53:00
11:53 AM,69.1,39.9,35,30.27,10.0,Variable,3.5,-,N/A,,Clear,0,2013-05-18 15:53:00
12:53 PM,64.0,44.1,48,30.26,10.0,ESE,11.5,18.4,N/A,,Scattered Clouds,120,2013-05-18 16:53:00
1:53 PM,64.9,43.0,45,30.26,10.0,ESE,12.7,-,N/A,,Scattered Clouds,120,2013-05-18 17:53:00
2:53 PM,64.4,42.8,45,30.26,10.0,SE,12.7,-,N/A,,Mostly Cloudy,130,2013-05-18 18:53:00
3:53 PM,61.0,46.9,60,30.26,10.0,SE,15.0,21.9,N/A,,Partly Cloudy,140,2013-05-18 19:53:00
4:53 PM,60.1,46.9,62,30.26,10.0,ESE,13.8,-,N/A,,Partly Cloudy,120,2013-05-18 20:53:00
5:53 PM,60.1,46.9,62,30.25,10.0,SE,11.5,-,N/A,,Clear,130,2013-05-18 21:53:00
6:53 PM,57.9,46.9,67,30.25,10.0,SE,11.5,-,N/A,,Partly Cloudy,130,2013-05-18 22:53:00
7:53 PM,55.9,50.0,80,30.25,10.0,SE,5.8,-,N/A,,Overcast,130,2013-05-18 23:53:00
8:53 PM,57.0,50.0,77,30.25,10.0,ENE,4.6,-,N/A,,Overcast,60,2013-05-19 00:53:00
9:53 PM,54.0,48.9,83,30.25,10.0,Calm,Calm,-,0.00,,Mostly Cloudy,0,2013-05-19 01:53:00
10:53 PM,59.0,46.9,64,30.25,10.0,WSW,6.9,-,N/A,,Clear,250,2013-05-19 02:53:00
11:53 PM,51.1,46.9,86,30.27,10.0,North,8.1,-,N/A,,Partly Cloudy,350,2013-05-19 03:53:00